Weather Service Report


722 
ASUS42 KRAH 290510
RWRRAH
NORTH CAROLINA WEATHER ROUNDUP
NATIONAL WEATHER SERVICE RALEIGH NC
100 AM EDT WED JUN 29 2016

NOTE: "FAIR" INDICATES FEW OR NO CLOUDS BELOW 12,000 FEET WITH NO
SIGNIFICANT WEATHER AND/OR OBSTRUCTIONS TO VISIBILITY.

NCZ001-053-055-056-065-067-290600-
WESTERN NORTH CAROLINA
  
CITY           SKY/WX    TMP DP  RH WIND       PRES   REMARKS
ASHEVILLE      CLEAR     65  61  87 NW3       30.06F                  
JEFFERSON      PTCLDY    69  56  64 W5        30.09S                  
MORGANTON      PTCLDY    68  66  94 CALM      30.03F                  
HICKORY        PTCLDY    72  68  87 NW6       29.97F                  
RUTHERFORDTON  CLEAR     68  68 100 CALM      29.99F                  
MOUNT AIRY     PTCLDY    70  67  92 CALM      30.00R                  
BOONE          CLEAR     59  59  99 CALM      30.10F                  
$$
 
NCZ021-022-025-041-071-084-088-290600-
CENTRAL NORTH CAROLINA
  
CITY           SKY/WX    TMP DP  RH WIND       PRES   REMARKS
CHARLOTTE      PTCLDY    72  65  78 CALM      29.96F                  
GREENSBORO     MOCLDY    73  66  78 W8        29.95S                  
WINSTON-SALEM  PTCLDY    75  65  70 CALM      29.97S                  
RALEIGH-DURHAM CLOUDY    71  69  93 SW5       29.95S                  
FORT BRAGG     FOG       72  72 100 CALM      29.93F VSB 1/4          
FAYETTEVILLE   FOG       71  70  96 CALM      29.94S VSB 1/2          
BURLINGTON     MOCLDY    71  71 100 CALM      29.94F FOG              
LAURINBURG     FOG       72  71  97 CALM      29.95S VSB 1/4          
$$
 
NCZ011-015-027-028-043-044-047-080-103-290600-
NORTHEASTERN NORTH CAROLINA
  
CITY           SKY/WX    TMP DP  RH WIND       PRES   REMARKS
ROCKY MT-WILSO FOG       69  69 100 CALM      29.94F VSB 3/4          
GREENVILLE     MOCLDY    72  72 100 CALM      29.95F                  
WASHINGTON     CLOUDY    73  72  97 CALM      29.93F                  
ELIZABETH CITY PTCLDY    72  68  87 CALM      29.93S                  
MANTEO         CLOUDY    73  73 100 CALM      29.93F                  
CAPE HATTERAS  CLOUDY    79  73  82 S10       29.93S                  
$$
 
NCZ078-087-090-091-093-098-101-290600-
SOUTHEASTERN NORTH CAROLINA
  
CITY           SKY/WX    TMP DP  RH WIND       PRES   REMARKS
LUMBERTON      CLOUDY    73  72  96 CALM      29.94S                  
GOLDSBORO      MOCLDY    72  72 100 CALM      29.92F                  
KINSTON        CLOUDY    72  71  98 CALM      29.94S                  
KENANSVILLE    CLOUDY    72  72  98 CALM      29.94S FOG              
NEW BERN       CLOUDY    74  72  93 CALM      29.94S                  
CHERRY POINT   CLOUDY    74  72  93 CALM      29.94S                  
BEAUFORT       CLOUDY    77  74  90 CALM      29.92F                  
JACKSONVILLE   CLOUDY    74  71  91 CALM      29.92S THUNDER          
WILMINGTON     CLOUDY    77  75  93 CALM      29.92F                  
$$

  

Return to Home page


Western Regional Climate Center, wrcc@dri.edu